{"data":{"norad_id":62334,"intl_designator":"2024-241B","name":"PIESAT-2 10","alt_names":[],"object_type":"PAYLOAD","status":"ACTIVE","operator":null,"country":"PRC","launch_date":"2024-12-16","launch_site_code":"TAISC","launch_vehicle":null,"mission":null,"orbit_class":"UNKNOWN","rcs_meters":null,"size_class":null,"mass_kg":null,"dimensions":null,"purposes":[],"wikipedia_slug":null,"has_3d_model":false,"image_url":null,"decayed_at":null,"tle_current":{"epoch":"2026-09-22T23:56:54.120768Z","epoch_age_seconds":96237,"freshness":"FRESH","line1":"1 62334U 24241B   26265.99784862  .00005906  00000+0  31593-3 0  9998","line2":"2 62334  97.5410 213.1926 0001849  76.3528 283.7910 15.15437871 97618","mean_motion":15.15437871,"eccentricity":0.0001849,"inclination_deg":97.541,"raan_deg":213.1926,"arg_perigee_deg":76.3528,"mean_anomaly_deg":283.791,"bstar":0.00031593,"rev_number":9761,"period_min":95.022041322603,"perigee_km":518.37414050756,"apogee_km":520.92494197051,"semimajor_km":6897.786541239,"source":"CELESTRAK","updated_at":"2026-09-23T09:00:21.387035Z"}}}